Regional Weather Roundup
Issued by NWS

Home | Current Version | Previous Version | Text Only | Print | Product List | Glossary On
Versions: 1 2 3 4 5 6 7 8 9 10 11 12 13 14 15 16 17 18 19 20 21 22 23 24 25 26 27 28 29 30 31 32 33 34 35 36 37 38 39 40 41 42 43 44 45 46 47 48 49 50
000
ASUS44 KFWD 050803
RWRTX
NORTH TEXAS HOURLY WEATHER ROUNDUP
NATIONAL WEATHER SERVICE FORT WORTH TX
300 AM CDT SAT SEP 05 2015

NOTE: "FAIR" INDICATES FEW OR NO CLOUDS BELOW 12,000 FEET WITH NO
SIGNIFICANT WEATHER AND/OR OBSTRUCTIONS TO VISIBILITY.

TXZ118-119-050900-
DALLAS/FORT WORTH METROPLEX

CITY           SKY/WX    TMP DP  RH WIND       PRES   REMARKS
DFW AIRPORT    CLEAR     82  71  69 S9        29.94S
DALLAS LOVE    CLEAR     83  71  67 S9        29.95R
FTW MEACHAM    CLEAR     82  71  69 S12       29.94R
DAL-EXECUTIVE  CLEAR     80  71  74 VRB6      29.95R
FTW-ALLIANCE   PTCLDY    80  70  71 S7        29.94R
FTW-NAS-JRB    CLEAR     82  71  69 S8        29.95R
FTW-SPINKS     CLEAR     78  71  76 S7        29.97R
ARLINGTON      CLEAR     81  70  69 SE6       29.95R
GRAND PRAIRIE  CLEAR     81  72  75 S5        29.97R
ADDISON        CLEAR     83  73  73 S6        29.97S
MESQUITE       CLEAR     78  71  79 SE3       29.96R
LANCASTER      CLEAR     79  69  72 S3        29.97R
$$

TXZ091>094-102>105-117-120-121-131>134-050900-
NORTH CENTRAL TEXAS

CITY           SKY/WX    TMP DP  RH WIND       PRES   REMARKS
SHRMAN/DENISON CLEAR     81  72  75 SE8       29.97S
BOWIE          CLEAR     75  68  77 SE5       29.95S
BRIDGEPORT     CLEAR     76  69  79 CALM      29.96S
DECATUR        CLEAR     79  67  67 SE7       29.96S
DENTON         CLEAR     81  70  69 S8        29.94S
MCKINNEY       CLEAR     80  71  74 SE6       29.96R
ROCKWALL       CLEAR     79  72  79 S5        29.95S
TERRELL        CLEAR     78  72  81 SE3       29.97R
WAXAHACHIE     CLEAR     78  72  80 S5        29.97S
CLEBURNE       CLEAR     77  73  88 S7        29.98R
GRANBURY       CLEAR     81  70  70 SE7       29.96S
$$

TXZ083>090-098>101-113>116-127>130-139>142-154-155-050900-
WESTERN NORTH TEXAS

CITY           SKY/WX    TMP DP  RH WIND       PRES   REMARKS
WICHITA FALLS  CLEAR     75  67  76 SE5       29.93R
WF-KICKAPOO    CLEAR     79  67  68 SE7       29.94S
VERNON         CLEAR     79  61  54 SE8       29.93S
ABILENE        CLEAR     78  67  68 S12       29.96S
ABILENE-DYESS  CLEAR     79  67  67 S12       29.95S
BRECKENRIDGE   CLEAR     81  68  64 S7        29.94S
MINERAL WELLS  CLEAR     77  69  76 SE8       29.94R
STEPHENVILLE   MOCLDY    76  69  77 CALM      29.99S
COMANCHE       CLEAR     77  69  77 S5        29.97S
COLEMAN        CLEAR     79  69  71 S6        29.98S
BRADY          CLEAR     77  70  78 SE7       29.98S
$$

TXZ143>147-156>162-174-175-050900-
CENTRAL TEXAS

CITY           SKY/WX    TMP DP  RH WIND       PRES   REMARKS
WACO           CLEAR     81  73  76 S15       29.95S
WACO-MCGREGOR  PTCLDY    79  73  82 S8        29.96R
CORSICANA      CLEAR     79  72  79 S5        29.97R
MEXIA          CLEAR     75  72  90 E7        29.96S
HEARNE         CLEAR     76  74  93 SE3       29.97S
CAMERON        CLEAR     78  75  91 S5        29.96S
TEMPLE         CLEAR     77  70  78 SE13      29.96S
KILLEEN        CLEAR     77  72  84 S8        29.96S
KILLEEN-SKYLRK CLEAR     79  68  69 SE8       29.94S
FORT HOOD      CLEAR     77  72  85 SE6       29.95S
GATESVILLE     CLEAR     79  72  78 CALM      29.99R
HAMILTON       CLEAR     77  70  77 S8        29.99R
$$

TXZ095>097-106>112-122>126-135>138-148>153-164>167-050900-
EAST TEXAS

CITY           SKY/WX    TMP DP  RH WIND       PRES   REMARKS
PARIS          CLEAR     75  64  69 E5        29.97S
SULPHUR SPRNGS CLEAR     79  71  76 S3        29.99R
MOUNT PLEASANT CLEAR     75  70  83 CALM      29.98R
MINEOLA        MOCLDY    81  73  78 S5        29.97S
TYLER          PTCLDY    77  71  82 SE5       29.97R
LONGVIEW       CLEAR     78  72  81 S3        29.96R
MARSHALL       CLEAR     76  73  91 CALM      29.98S
ATHENS         CLEAR     75  70  83 SE3       29.96R
PALESTINE      CLEAR     77  73  88 CALM      29.98R
JACKSONVILLE   CLEAR     77  73  87 SW5       30.00R
HENDERSON      CLEAR     75  72  91 CALM      29.98R
CENTER         FAIR      76  73  92 CALM      29.97R
NACOGDOCHES    CLEAR     73  72  94 CALM      29.97S
LUFKIN         CLEAR     74  73  97 CALM      29.97R
$$

SUPPLEMENTAL OBSERVATIONS (CENTRAL)

CITY           SKY/WX    TMP DP  RH WIND       PRES   REMARKS
$$

SUPPLEMENTAL OBSERVATIONS (WEST)

CITY           SKY/WX    TMP DP  RH WIND       PRES   REMARKS
$$

SUPPLEMENTAL OBSERVATIONS (EAST)

CITY           SKY/WX    TMP DP  RH WIND       PRES   REMARKS
$$

SUPPLEMENTAL OBSERVATIONS ARE A COLLECTION OF AUTOMATED INSTRUMENTS
THAT ARE MAINTAINED BY A VARIETY OF FEDERAL AND STATE AGENCIES.
CERTAIN ELEMENTS...SUCH AS HUMIDITY VALUES AND SUSTAINED WIND
SPEEDS...MAY BE APPROXIMATED.



USA.gov is the U.S. government's official web portal to all federal, state and local government web resources and services.